LogID,LogEntryDate,LogEntryTime,LogEntrySeconds,LogNotes,AFR,STFT,CurrentLTFT,IdleLTFT,CruiseLTFT,Load,O2Sensor2,IPW,AFRMAP,LoadTiming,TimingAdv,KnockSum,RPM,Baro,MAP,Boost,WGDC_Active,MAF,IDC,InVVTtarget,ExVVTtarget,InVVTactual,ExVVTactual,TPS,APP,IAT,WGDCCorr,Speed,Battery,ECT,MAT,MAPCalcs,IMAPCalcs,MAFCalcs,ChosenCalc,Custom
1,2017-01-29,12:11:42.55036,0.05444,,,-4.1015625,8.3984375,4.8828125,8.3984375,43.75,0,2.8,14.7,43.75,36,0,2343.75,15.37400044,9.4557162,-5.91828424,32.5,1.921584,5.46875,18.125,-13.125,18.90625,-11.40625,20,18.7176470588235,80.6,0,11.187,14.07936,183.2,105.8,50,0,40.625,42.1875,
2,2017-01-29,12:11:42.56596,0.07881,,,-4.1015625,8.3984375,4.8828125,8.3984375,42.1875,0,2.8,14.7,42.1875,36,0,2375,15.37400044,9.4557162,-5.91828424,32.5,1.921584,5.54166666666667,18.125,-13.125,18.90625,-11.40625,20,18.7176470588235,80.6,0,11.187,14.07936,183.2,105.8,50,0,43.75,42.1875,
3,2017-01-29,12:11:42.59716,0.09902,,,-4.1015625,8.3984375,4.8828125,8.3984375,42.1875,0,2.8,14.7,42.1875,37,0,2390.625,15.37400044,9.2627424,-6.11125804,30,1.843152,5.578125,18.125,-13.125,18.90625,-11.40625,20,18.7176470588235,80.6,0,11.187,14.07936,183.2,105.8,50,0,40.625,42.1875,
4,2017-01-29,12:11:42.61276,0.12703,,,-4.296875,8.3984375,4.8828125,8.3984375,42.1875,0,2.7,14.7,42.1875,37,0,2414.0625,15.37400044,9.2627424,-6.11125804,30,1.843152,5.431640625,18.125,-13.125,18.75,-11.71875,20,18.7176470588235,80.6,0,11.187,14.07936,183.2,105.8,50,0,42.1875,42.1875,
5,2017-01-29,12:11:42.64396,0.15406,,,-4.296875,8.3984375,4.8828125,8.3984375,42.1875,0,2.8,14.7,42.1875,37,0,2429.6875,15.37400044,9.1662555,-6.20774494,29,1.921584,5.66927083333333,18.125,-13.125,18.75,-11.71875,20,19.2235294117647,80.6,0,11.187,14.07936,183.2,105.8,48.4375,0,40.625,40.625,
6,2017-01-29,12:11:42.67516,0.18115,,,-4.296875,8.3984375,4.8828125,8.3984375,40.625,0,2.7,14.7,40.625,37,0,2437.5,15.37400044,9.1662555,-6.20774494,29,1.921584,5.484375,18.125,-13.125,18.75,-11.71875,20,19.2235294117647,80.6,0,11.187,14.00603,183.2,105.8,48.4375,0,40.625,40.625,
7,2017-01-29,12:11:42.69076,0.20664,,,-4.6875,8.3984375,4.8828125,8.3984375,40.625,0,2.7,14.7,40.625,37,0,2460.9375,15.37400044,9.0697686,-6.30423184,27.5,1.921584,5.537109375,18.125,-13.125,18.75,-11.71875,20,19.2235294117647,80.6,0,11.187,14.00603,183.2,105.8,46.875,0,42.1875,42.1875,
8,2017-01-29,12:11:42.72196,0.23357,,,-4.6875,8.3984375,4.8828125,8.3984375,42.1875,0,2.8,14.7,42.1875,37,0,2460.9375,15.37400044,9.0697686,-6.30423184,27.5,1.921584,5.7421875,18.125,-13.75,18.59375,-11.71875,20,19.2235294117647,80.6,0,11.187,14.00603,183.2,105.8,46.875,0,40.625,42.1875,
9,2017-01-29,12:11:42.75316,0.26349,,,-4.6875,8.3984375,4.8828125,8.3984375,42.1875,0,2.7,14.7,42.1875,37,0,2476.5625,15.37400044,8.9732817,-6.40071874,27,1.901976,5.572265625,18.125,-13.75,18.59375,-11.71875,20,19.2235294117647,80.6,0,11.187,14.00603,183.2,105.8,46.875,0,39.0625,40.625,
10,2017-01-29,12:11:42.78436,0.2942,,,-5.078125,8.3984375,4.8828125,8.3984375,40.625,0,2.7,14.7,40.625,37,0,2484.375,15.37400044,8.9732817,-6.40071874,27,1.901976,5.58984375,17.5,-13.75,18.75,-11.875,20,19.2235294117647,80.6,0,11.187,14.00603,183.2,105.8,46.875,0,40.625,40.625,
11,2017-01-29,12:11:42.79996,0.31637,,,-5.078125,8.3984375,4.8828125,8.3984375,40.625,0,2.7,14.7,40.625,37,0,2492.1875,15.37400044,8.8767948,-6.49720564,26,1.921584,5.607421875,17.5,-13.75,18.75,-11.875,20,19.2235294117647,80.6,0,11.187,14.00603,183.2,105.8,46.875,0,40.625,40.625,
12,2017-01-29,12:11:42.83116,0.336,,,-5.078125,8.3984375,4.8828125,8.3984375,40.625,0,2.7,14.7,40.625,37,0,2500,15.37400044,8.8767948,-6.49720564,26,1.921584,5.625,17.5,-13.75,18.90625,-12.03125,20,19.2235294117647,80.6,0,11.187,14.07936,183.2,105.8,46.875,0,39.0625,40.625,
13,2017-01-29,12:11:42.84676,0.36097,,,-5.2734375,8.3984375,4.8828125,8.3984375,40.625,0,2.7,14.7,40.625,37,0,2507.8125,15.37400044,8.7803079,-6.59369254,25.5,1.9608,5.642578125,17.5,-13.75,18.90625,-12.03125,20,19.2235294117647,80.6,0,11.187,14.07936,183.2,105.8,46.875,0,39.0625,40.625,
14,2017-01-29,12:11:42.87796,0.37949,,,-5.2734375,8.3984375,4.8828125,8.3984375,40.625,0,2.7,14.7,40.625,37,0,2515.625,15.37400044,8.7803079,-6.59369254,25.5,1.9608,5.66015625,17.5,-13.75,18.59375,-12.03125,20,19.2235294117647,80.6,0,11.187,14.07936,183.2,105.8,46.875,0,40.625,40.625,
15,2017-01-29,12:11:42.89356,0.40381,,,-5.2734375,8.3984375,4.8828125,8.3984375,40.625,0,2.7,14.7,40.625,37,0,2531.25,15.37400044,8.7803079,-6.59369254,24.5,1.941192,5.6953125,17.5,-13.75,18.59375,-12.03125,20,19.2235294117647,80.6,0,11.187,14.07936,183.2,105.8,46.875,0,37.5,39.0625,
16,2017-01-29,12:11:42.92476,0.42951,,,-5.46875,8.3984375,4.8828125,8.3984375,40.625,0,2.7,14.7,40.625,38,0,2546.875,15.37400044,8.7803079,-6.59369254,24.5,1.941192,5.73046875,17.5,-13.75,18.4375,-12.34375,20,19.2235294117647,80.6,0,11.187,14.07936,183.2,105.8,46.875,0,40.625,40.625,
17,2017-01-29,12:11:42.94036,0.45647,,,-5.46875,8.3984375,4.8828125,8.3984375,40.625,0,2.6,14.7,40.625,38,0,2562.5,15.37400044,8.683821,-6.69017944,23,1.921584,5.55208333333333,17.5,-13.75,18.4375,-12.34375,20,19.2235294117647,80.6,0,11.187,14.07936,183.2,105.8,45.3125,0,37.5,39.0625,
18,2017-01-29,12:11:42.97156,0.48571,,,-5.46875,8.3984375,4.8828125,8.3984375,39.0625,0,2.6,14.7,39.0625,38,0,2578.125,15.37400044,8.683821,-6.69017944,23,1.921584,5.5859375,17.5,-13.75,18.28125,-12.34375,20,19.2235294117647,80.6,0,11.187,14.07936,183.2,105.8,45.3125,0,39.0625,39.0625,
19,2017-01-29,12:11:43.00276,0.51853,,,-5.6640625,8.3984375,4.8828125,8.3984375,39.0625,0,2.7,14.7,39.0625,38,0,2609.375,15.37400044,8.5873341,-6.78666634,22,1.9608,5.87109375,17.5,-13.75,18.28125,-12.34375,20,19.2235294117647,80.6,0,11.187,14.07936,183.2,105.8,45.3125,0,37.5,39.0625,
20,2017-01-29,12:11:43.03396,0.54054,,,-5.6640625,8.3984375,4.8828125,8.3984375,39.0625,0,2.7,14.7,39.0625,38,0,2625,15.37400044,8.5873341,-6.78666634,22,1.9608,5.90625,17.5,-13.125,18.28125,-12.34375,20,19.2235294117647,80.6,0,11.187,14.07936,183.2,105.8,45.3125,0,37.5,39.0625,
21,2017-01-29,12:11:43.04956,0.5635,,,-5.6640625,8.3984375,4.8828125,8.3984375,39.0625,0,2.6,14.7,39.0625,38,0,2625,15.37400044,8.4908472,-6.88315324,21.5,1.9608,5.6875,17.5,-13.125,18.28125,-12.34375,20,19.2235294117647,80.6,0,12.43,14.07936,183.2,105.8,43.75,0,39.0625,39.0625,
22,2017-01-29,12:11:43.08076,0.59728,,,-5.078125,8.3984375,4.8828125,8.3984375,39.0625,0,2.7,14.7,39.0625,38,0,2648.4375,15.37400044,8.4908472,-6.88315324,21.5,1.9608,5.958984375,17.5,-13.125,18.125,-12.34375,20,19.2235294117647,80.6,0,12.43,14.07936,183.2,105.8,43.75,0,39.0625,39.0625,
23,2017-01-29,12:11:43.11196,0.62165,,,-5.078125,8.3984375,4.8828125,8.3984375,39.0625,0,2.7,14.7,39.0625,38,0,2664.0625,15.37400044,8.3943603,-6.97964014,20,1.9608,5.994140625,17.5,-13.125,18.125,-12.34375,20,18.7176470588235,80.6,0,12.43,14.07936,183.2,105.8,43.75,0,39.0625,39.0625,
24,2017-01-29,12:11:43.12756,0.64072,,,-5.078125,8.3984375,4.8828125,8.3984375,39.0625,0,2.7,14.7,39.0625,38,0,2671.875,15.37400044,8.3943603,-6.97964014,20,1.9608,6.01171875,17.5,-13.125,18.125,-12.1875,20,18.7176470588235,80.6,0,12.43,14.07936,183.2,105.8,43.75,0,39.0625,39.0625,
25,2017-01-29,12:11:43.15876,0.66446,,,-4.4921875,8.3984375,4.8828125,8.3984375,39.0625,0,2.7,14.7,39.0625,38,0,2671.875,15.37400044,8.2978734,-7.07612704,19.5,2.000016,6.01171875,17.5,-13.125,18.125,-12.1875,20,18.7176470588235,80.6,0,12.43,14.07936,183.2,105.8,43.75,0,40.625,39.0625,
26,2017-01-29,12:11:43.17436,0.68874,,,-4.4921875,8.3984375,4.8828125,8.3984375,39.0625,0,2.8,14.7,39.0625,38,0,2679.6875,15.37400044,8.2978734,-7.07612704,19.5,2.000016,6.25260416666667,17.5,-13.75,18.125,-12.1875,20,18.7176470588235,80.6,0,12.43,14.07936,183.2,105.8,43.75,0,40.625,39.0625,
27,2017-01-29,12:11:43.20556,0.71576,,,-4.4921875,8.3984375,4.8828125,8.3984375,39.0625,0,2.8,14.7,39.0625,38,0,2687.5,15.37400044,8.2978734,-7.07612704,19,1.941192,6.27083333333333,17.5,-13.75,18.125,-12.1875,20,18.7176470588235,80.6,0,12.43,14.07936,183.2,105.8,43.75,0,39.0625,39.0625,
28,2017-01-29,12:11:43.23676,0.74543,,,-4.1015625,8.3984375,4.8828125,8.3984375,39.0625,0,2.7,14.7,39.0625,38,0,2695.3125,15.37400044,8.2978734,-7.07612704,19,1.941192,6.064453125,17.5,-13.75,18.125,-12.34375,20,18.7176470588235,80.6,0,12.43,14.07936,183.2,105.8,43.75,0,35.9375,39.0625,
29,2017-01-29,12:11:43.25236,0.76594,,,-4.1015625,8.3984375,4.8828125,8.3984375,39.0625,0,2.7,14.7,39.0625,38,0,2695.3125,15.37400044,8.2013865,-7.17261394,18,1.980408,6.064453125,17.5,-13.75,18.125,-12.34375,20,19.2235294117647,80.6,0,12.43,14.07936,183.2,105.8,42.1875,0,39.0625,39.0625,
30,2017-01-29,12:11:43.28356,0.78518,,,-4.1015625,8.3984375,4.8828125,8.3984375,39.0625,0,2.7,14.7,39.0625,38,0,2703.125,15.37400044,8.2013865,-7.17261394,18,1.980408,6.08203125,17.5,-13.125,18.125,-12.34375,20,19.2235294117647,80.6,0,12.43,14.07936,183.2,105.8,42.1875,0,35.9375,37.5,
31,2017-01-29,12:11:43.29916,0.81274,,,-3.515625,8.3984375,4.8828125,8.3984375,39.0625,0,2.7,14.7,39.0625,38,0,2718.75,15.37400044,8.2013865,-7.17261394,17,1.901976,6.1171875,17.5,-13.125,18.125,-12.34375,20,19.2235294117647,80.6,0,12.43,14.07936,183.2,105.8,42.1875,0,39.0625,37.5,
32,2017-01-29,12:11:43.33036,0.83799,,,-3.515625,8.3984375,4.8828125,8.3984375,37.5,0,2.7,14.7,37.5,38,0,2742.1875,15.37400044,8.2013865,-7.17261394,17,1.901976,6.169921875,17.5,-13.125,18.125,-12.34375,20,19.2235294117647,80.6,0,12.43,14.07936,183.2,105.8,42.1875,0,35.9375,37.5,
33,2017-01-29,12:11:43.34596,0.85802,,,-3.515625,8.3984375,4.8828125,8.3984375,37.5,0,2.7,14.7,37.5,38,0,2750,15.37400044,8.2013865,-7.17261394,16.5,1.9608,6.1875,17.5,-13.125,18.125,-12.34375,20,19.2235294117647,80.6,0,12.43,14.07936,183.2,105.8,42.1875,0,35.9375,37.5,
34,2017-01-29,12:11:43.37716,0.88306,,,-2.9296875,8.3984375,4.8828125,8.3984375,37.5,0,2.7,14.7,37.5,38,0,2757.8125,15.37400044,8.2013865,-7.17261394,16.5,1.9608,6.205078125,16.875,-12.5,18.125,-12.34375,20,19.2235294117647,80.6,0,12.43,14.07936,183.2,105.8,42.1875,0,37.5,37.5,
35,2017-01-29,12:11:43.40836,0.91073,,,-2.9296875,8.3984375,4.8828125,8.3984375,37.5,0,2.6,14.7,37.5,38,0,2781.25,15.37400044,8.1048996,-7.26910084,16.5,1.9608,6.02604166666667,16.875,-12.5,18.125,-12.34375,20,19.2235294117647,80.6,0,12.43,14.07936,183.2,105.8,42.1875,0,37.5,37.5,
36,2017-01-29,12:11:43.42396,0.93032,,,-2.9296875,8.3984375,4.8828125,8.3984375,37.5,0,2.6,14.7,37.5,38,0,2796.875,15.37400044,8.1048996,-7.26910084,16.5,1.9608,6.05989583333333,16.875,-12.5,17.96875,-12.34375,20,19.2235294117647,80.6,0,12.43,14.07936,183.2,105.8,42.1875,0,34.375,37.5,
37,2017-01-29,12:11:43.45516,0.9624,,,-3.125,8.3984375,4.8828125,8.3984375,37.5,0,2.6,14.7,37.5,39,0,2812.5,15.37400044,8.1048996,-7.26910084,16.5,1.882368,6.09375,16.875,-12.5,17.96875,-12.34375,20,19.2235294117647,80.6,0,12.43,14.07936,183.2,105.8,42.1875,0,35.9375,35.9375,
38,2017-01-29,12:11:43.47076,0.98053,,,-3.125,8.3984375,4.8828125,8.3984375,37.5,0,2.5,14.7,37.5,39,0,2812.5,15.37400044,8.1048996,-7.26910084,16.5,1.882368,5.859375,16.875,-12.5,17.96875,-12.1875,20,18.7176470588235,80.6,0,12.43,14.07936,183.2,105.8,42.1875,0,32.8125,35.9375,
39,2017-01-29,12:11:43.50196,1.01553,,,-3.125,8.3984375,4.8828125,8.3984375,35.9375,0,2.5,14.7,35.9375,40,0,2820.3125,15.37400044,8.1048996,-7.26910084,17,1.941192,5.87565104166667,16.875,-12.5,17.96875,-12.1875,20,18.7176470588235,80.6,0,12.43,14.07936,183.2,105.8,42.1875,0,34.375,35.9375,
40,2017-01-29,12:11:43.53316,1.04027,,,-3.515625,8.3984375,4.8828125,8.3984375,35.9375,0,2.5,14.7,35.9375,40,0,2828.125,15.37400044,8.1048996,-7.26910084,17,1.941192,5.89192708333333,16.875,-11.875,17.65625,-11.875,20,18.7176470588235,80.6,0,12.43,14.07936,183.2,105.8,42.1875,0,34.375,35.9375,
41,2017-01-29,12:11:43.54876,1.05794,,,-3.515625,8.3984375,4.8828125,8.3984375,35.9375,0,2.5,14.7,35.9375,40,0,2828.125,15.37400044,7.9119258,-7.46207464,17,1.9608,5.89192708333333,16.875,-11.875,17.65625,-11.875,20,19.2235294117647,80.6,0,12.43,14.07936,183.2,105.8,42.1875,0,37.5,35.9375,
42,2017-01-29,12:11:43.56436,1.07807,,,-3.515625,8.3984375,4.8828125,8.3984375,35.9375,0,2.5,14.7,35.9375,40,0,2835.9375,15.37400044,7.9119258,-7.46207464,17,1.9608,5.908203125,16.875,-11.875,17.65625,-11.5625,20,19.2235294117647,80.6,0,12.43,14.07936,183.2,105.8,42.1875,0,35.9375,35.9375,
43,2017-01-29,12:11:43.59556,1.10994,,,-3.90625,8.3984375,4.8828125,8.3984375,35.9375,0,2.6,14.7,35.9375,40,0,2843.75,15.37400044,8.0084127,-7.36558774,17,1.921584,6.16145833333333,16.875,-11.875,17.65625,-11.5625,20,19.2235294117647,80.6,0,12.43,14.07936,183.2,105.8,40.625,0,37.5,35.9375,
44,2017-01-29,12:11:43.62676,1.13472,,,-3.90625,8.3984375,4.8828125,8.3984375,35.9375,0,2.5,14.7,35.9375,40,0,2851.5625,15.37400044,8.0084127,-7.36558774,17,1.921584,5.94075520833333,16.875,-12.5,17.5,-11.5625,20,19.2235294117647,80.6,0,12.43,14.07936,183.2,105.8,42.1875,0,39.0625,37.5,
45,2017-01-29,12:11:43.65796,1.17283,,,-3.90625,8.3984375,4.8828125,8.3984375,37.5,0,2.6,14.7,37.5,39,0,2867.1875,15.37400044,7.9119258,-7.46207464,17.5,1.882368,6.21223958333333,16.875,-12.5,17.5,-11.5625,20,19.2235294117647,80.6,0,12.43,14.07936,183.2,105.8,40.625,0,32.8125,35.9375,
46,2017-01-29,12:11:43.70476,1.2096,,,-4.296875,8.3984375,4.8828125,8.3984375,35.9375,0,2.5,14.7,35.9375,40,0,2898.4375,15.37400044,7.9119258,-7.46207464,17.5,1.882368,6.03841145833333,16.875,-12.5,17.65625,-11.40625,20,19.2235294117647,80.6,0,12.43,14.07936,183.2,105.8,40.625,0,34.375,35.9375,
47,2017-01-29,12:11:43.72036,1.23508,,,-4.296875,8.3984375,4.8828125,8.3984375,35.9375,0,2.6,14.7,35.9375,40,0,2906.25,15.37400044,7.9119258,-7.46207464,17.5,1.941192,6.296875,16.875,-12.5,17.65625,-11.40625,20,19.2235294117647,80.6,0,12.43,14.07936,183.2,105.8,40.625,0,34.375,35.9375,
48,2017-01-29,12:11:43.73596,1.25249,,,-4.296875,8.3984375,4.8828125,8.3984375,35.9375,0,2.6,14.7,35.9375,40,0,2921.875,15.37400044,7.9119258,-7.46207464,17.5,1.941192,6.33072916666667,16.875,-11.875,17.34375,-11.40625,20,19.2235294117647,80.6,0,13.673,14.07936,183.2,105.8,40.625,0,34.375,35.9375,
49,2017-01-29,12:11:43.76716,1.27978,,,-3.90625,8.3984375,4.8828125,8.3984375,35.9375,0,2.6,14.7,35.9375,41,0,2937.5,15.37400044,7.8154389,-7.55856154,18,1.980408,6.36458333333333,16.875,-11.875,17.34375,-11.40625,20,19.2235294117647,80.6,0,13.673,14.07936,183.2,105.8,40.625,0,35.9375,35.9375,
50,2017-01-29,12:11:43.79836,1.29963,,,-3.90625,8.3984375,4.8828125,8.3984375,35.9375,0,2.6,14.7,35.9375,41,0,2953.125,15.37400044,7.8154389,-7.55856154,18,1.980408,6.3984375,16.875,-11.875,17.34375,-11.5625,20,19.2235294117647,80.6,0,13.673,14.07936,183.2,105.8,40.625,0,34.375,35.9375,
51,2017-01-29,12:11:43.81396,1.32024,,,-3.90625,8.3984375,4.8828125,8.3984375,35.9375,0,2.6,14.7,35.9375,41,0,2960.9375,15.37400044,7.8154389,-7.55856154,18,1.9608,6.41536458333333,16.875,-11.875,17.34375,-11.5625,20,19.2235294117647,80.6,0,13.673,14.07936,183.2,105.8,40.625,0,35.9375,35.9375,
52,2017-01-29,12:11:43.82956,1.34177,,,-3.3203125,8.3984375,4.8828125,8.3984375,35.9375,0,2.6,14.7,35.9375,41,0,2960.9375,15.37400044,7.8154389,-7.55856154,18,1.9608,6.41536458333333,16.875,-11.875,17.5,-11.40625,20,19.2235294117647,80.6,0,13.673,14.07936,183.2,105.8,40.625,0,35.9375,35.9375,
53,2017-01-29,12:11:43.86076,1.36722,,,-3.3203125,8.3984375,4.8828125,8.3984375,35.9375,0,2.6,14.7,35.9375,41,0,2968.75,15.37400044,7.718952,-7.65504844,18.5,1.980408,6.43229166666667,16.875,-11.875,17.5,-11.40625,20,18.7176470588235,80.6,0,13.673,14.07936,183.2,105.8,40.625,0,35.9375,35.9375,
54,2017-01-29,12:11:43.87636,1.38197,,,-3.3203125,8.3984375,4.8828125,8.3984375,35.9375,0,2.6,14.7,35.9375,41,0,2968.75,15.37400044,7.718952,-7.65504844,18.5,1.980408,6.43229166666667,16.875,-11.875,17.65625,-11.09375,20,18.7176470588235,80.6,0,13.673,14.07936,183.2,105.8,40.625,0,35.9375,35.9375,
55,2017-01-29,12:11:43.90756,1.40902,,,-2.9296875,8.3984375,4.8828125,8.3984375,35.9375,0,2.6,14.7,35.9375,41,0,2976.5625,15.37400044,7.718952,-7.65504844,18.5,2.000016,6.44921875,16.875,-11.875,17.65625,-11.09375,20,18.7176470588235,80.6,0,13.673,14.07936,183.2,105.8,40.625,0,34.375,35.9375,
56,2017-01-29,12:11:43.92316,1.42903,,,-2.9296875,8.3984375,4.8828125,8.3984375,35.9375,0,2.6,14.7,35.9375,41,0,2984.375,15.37400044,7.718952,-7.65504844,18.5,2.000016,6.46614583333333,16.875,-11.875,17.65625,-11.09375,20,18.7176470588235,80.6,0,13.673,14.07936,183.2,105.8,40.625,0,34.375,34.375,
57,2017-01-29,12:11:43.93876,1.45501,,,-2.9296875,8.3984375,4.8828125,8.3984375,34.375,0,2.6,14.7,34.375,41,0,2984.375,15.37400044,7.718952,-7.65504844,18.5,1.921584,6.46614583333333,16.875,-11.875,17.65625,-11.09375,20,18.7176470588235,80.6,0,13.673,14.07936,183.2,105.8,40.625,0,32.8125,34.375,
58,2017-01-29,12:11:43.96996,1.4799,,,-2.34375,8.3984375,4.8828125,8.3984375,34.375,0,2.6,14.7,34.375,41,0,3000,15.37400044,7.718952,-7.65504844,18.5,1.921584,6.5,16.875,-11.25,17.5,-10.9375,20,18.7176470588235,80.6,0,13.673,14.07936,183.2,105.8,40.625,0,35.9375,34.375,
59,2017-01-29,12:11:44.00116,1.50236,,,-2.34375,8.3984375,4.8828125,8.3984375,34.375,0,2.6,14.7,34.375,41,0,3007.8125,15.37400044,7.6224651,-7.75153534,18.5,1.921584,6.51692708333333,16.875,-11.25,17.5,-10.9375,20,19.2235294117647,80.6,0,13.673,14.07936,183.2,105.8,39.0625,0,32.8125,34.375,
60,2017-01-29,12:11:44.01676,1.52663,,,-2.34375,8.3984375,4.8828125,8.3984375,34.375,0,2.5,14.7,34.375,41,0,3015.625,15.37400044,7.6224651,-7.75153534,18.5,1.921584,6.28255208333333,16.875,-11.25,17.65625,-10.9375,20,19.2235294117647,80.6,0,13.673,14.07936,183.2,105.8,40.625,0,37.5,34.375,
61,2017-01-29,12:11:44.06356,1.56557,,,-2.1484375,8.3984375,4.8828125,8.3984375,35.9375,0,2.5,14.7,35.9375,41,0,3031.25,15.37400044,7.6224651,-7.75153534,18.5,1.921584,6.31510416666667,16.875,-11.25,17.65625,-10.9375,20,19.2235294117647,80.6,0,13.673,14.07936,183.2,105.8,40.625,0,34.375,34.375,
62,2017-01-29,12:11:44.09476,1.59893,,,-2.1484375,8.3984375,4.8828125,8.3984375,34.375,0,2.5,14.7,34.375,41,0,3039.0625,15.37400044,7.6224651,-7.75153534,18.5,1.921584,6.33138020833333,16.875,-11.25,17.5,-10.78125,20,19.2235294117647,80.6,0,13.673,14.07936,183.2,105.8,40.625,0,35.9375,34.375,
63,2017-01-29,12:11:44.11036,1.62436,,,-2.1484375,8.3984375,4.8828125,8.3984375,34.375,0,2.5,14.7,34.375,41,0,3054.6875,15.37400044,7.718952,-7.65504844,18.5,1.980408,6.36393229166667,16.875,-11.25,17.5,-10.78125,20,19.2235294117647,80.6,0,13.673,14.07936,183.2,105.8,40.625,0,35.9375,34.375,
64,2017-01-29,12:11:44.15716,1.66088,,,-2.734375,8.3984375,4.8828125,8.3984375,35.9375,0,2.5,14.7,35.9375,41,0,3078.125,15.37400044,7.718952,-7.65504844,18.5,1.980408,6.41276041666667,16.875,-11.875,17.5,-10.625,20,19.2235294117647,80.6,0,13.673,14.07936,183.2,105.8,40.625,0,34.375,34.375,
65,2017-01-29,12:11:44.17276,1.68157,,,-2.734375,8.3984375,4.8828125,8.3984375,35.9375,0,2.5,14.7,35.9375,41,0,3078.125,15.37400044,7.718952,-7.65504844,18.5,1.941192,6.41276041666667,16.875,-11.875,17.5,-10.625,20.3921568627451,19.2235294117647,80.6,0,13.673,14.07936,183.2,105.8,40.625,0,34.375,34.375,
66,2017-01-29,12:11:44.20396,1.7088,,,-2.734375,8.3984375,4.8828125,8.3984375,34.375,0,2.5,14.7,34.375,41,0,3085.9375,15.37400044,7.718952,-7.65504844,18.5,1.941192,6.42903645833333,16.875,-11.25,17.5,-10.78125,20.3921568627451,19.2235294117647,80.6,0,13.673,14.07936,183.2,105.8,40.625,0,34.375,34.375,
67,2017-01-29,12:11:44.23516,1.73643,,,-3.125,8.3984375,4.8828125,8.3984375,34.375,0,2.5,14.7,34.375,41,0,3101.5625,15.37400044,7.718952,-7.65504844,19,1.9608,6.46158854166667,16.875,-11.25,17.5,-10.78125,20.3921568627451,19.2235294117647,80.6,0,13.673,14.07936,183.2,105.8,40.625,0,34.375,34.375,
68,2017-01-29,12:11:44.25076,1.75838,,,-3.125,8.3984375,4.8828125,8.3984375,34.375,0,2.5,14.7,34.375,41,0,3109.375,15.37400044,7.718952,-7.65504844,19,1.9608,6.47786458333333,16.875,-11.25,17.65625,-10.46875,20,19.2235294117647,80.6,0,13.673,14.07936,183.2,105.8,40.625,0,34.375,34.375,
69,2017-01-29,12:11:44.26636,1.78106,,,-3.125,8.3984375,4.8828125,8.3984375,34.375,0,2.5,14.7,34.375,41,0,3117.1875,15.37400044,7.6224651,-7.75153534,18.5,1.9608,6.494140625,16.875,-11.25,17.65625,-10.46875,20,19.2235294117647,80.6,0,13.673,14.07936,183.2,105.8,40.625,0,34.375,34.375,
70,2017-01-29,12:11:44.31316,1.81477,,,-3.515625,8.3984375,4.8828125,8.3984375,34.375,0,2.4,14.7,34.375,41,0,3132.8125,15.37400044,7.6224651,-7.75153534,18.5,1.9608,6.265625,16.25,-11.25,17.5,-10.46875,20,19.2235294117647,80.6,0,13.673,14.07936,183.2,105.8,40.625,0,32.8125,34.375,
71,2017-01-29,12:11:44.32876,1.84075,,,-3.515625,8.3984375,4.8828125,8.3984375,34.375,0,2.4,14.7,34.375,41,0,3140.625,15.37400044,7.6224651,-7.75153534,19,2.039232,6.28125,16.25,-11.25,17.5,-10.46875,20,19.2235294117647,80.6,0,13.673,14.07936,183.2,105.8,40.625,0,35.9375,34.375,
72,2017-01-29,12:11:44.35996,1.86648,,,-3.515625,8.3984375,4.8828125,8.3984375,34.375,0,2.5,14.7,34.375,-3,0,3132.8125,15.37400044,7.6224651,-7.75153534,19,2.039232,6.52669270833333,16.875,-11.25,17.34375,-10.46875,20,19.2235294117647,80.6,0,13.673,14.07936,183.2,105.8,40.625,0,34.375,34.375,
73,2017-01-29,12:11:44.39116,1.90132,,,-3.90625,8.3984375,4.8828125,8.3984375,34.375,0,2.4,14.7,34.375,-4,0,3015.625,15.37400044,7.6224651,-7.75153534,18,1.9608,6.03125,16.875,-11.25,17.34375,-10.46875,20,19.2235294117647,80.6,0,13.673,14.07936,183.2,105.8,39.0625,0,37.5,35.9375,
74,2017-01-29,12:11:44.42236,1.93507,,,-3.90625,8.3984375,4.8828125,8.3984375,35.9375,0,2.5,14.7,35.9375,-5,0,2882.8125,15.37400044,7.6224651,-7.75153534,18,1.9608,6.005859375,16.875,-11.875,17.5,-10.625,20,18.7176470588235,80.6,0,13.673,14.07936,183.2,105.8,40.625,0,39.0625,35.9375,
75,2017-01-29,12:11:44.45356,1.96377,,,-3.90625,8.3984375,4.8828125,8.3984375,35.9375,0,2.6,14.7,35.9375,-7,0,2734.375,15.37400044,7.9119258,-7.46207464,18.5,1.941192,5.92447916666667,16.875,-11.875,17.5,-10.625,20,18.7176470588235,80.6,0,16.159,14.07936,183.2,105.8,40.625,0,39.0625,37.5,
76,2017-01-29,12:11:44.48476,1.99889,,,-4.296875,8.3984375,4.8828125,8.3984375,37.5,0,2.6,14.7,37.5,-8,0,2632.8125,15.37400044,7.9119258,-7.46207464,18.5,1.941192,5.70442708333333,17.5,-13.125,17.8125,-10.625,20,18.7176470588235,80.6,0,16.159,14.07936,183.2,105.8,40.625,0,39.0625,37.5,
77,2017-01-29,12:11:44.51596,2.02445,,,-4.296875,8.3984375,4.8828125,8.3984375,37.5,0,2.6,14.7,37.5,-5,0,2492.1875,15.37400044,8.2978734,-7.07612704,27.5,1.882368,5.39973958333333,17.5,-13.125,17.8125,-10.625,19.2156862745098,18.2117647058824,80.6,0,16.159,14.07936,183.2,105.8,42.1875,0,39.0625,37.5,
78,2017-01-29,12:11:44.54716,2.05164,,,-4.296875,8.3984375,4.8828125,8.3984375,37.5,0,2.6,14.7,39.0625,0,0,2406.25,15.37400044,8.2978734,-7.07612704,27.5,1.882368,5.21354166666667,17.5,-12.5,17.96875,-10.78125,19.2156862745098,18.2117647058824,80.6,0,16.159,14.07936,183.2,105.8,43.75,0,40.625,39.0625,
79,2017-01-29,12:11:44.57836,2.08459,,,-4.296875,8.3984375,4.8828125,8.3984375,39.0625,0,2.9,14.7,39.0625,3,0,2335.9375,15.37400044,8.5873341,-6.78666634,36,1.901976,5.64518229166667,17.5,-12.5,17.96875,-10.78125,19.2156862745098,18.2117647058824,80.6,0,16.159,14.07936,183.2,105.8,43.75,0,40.625,39.0625,
80,2017-01-29,12:11:44.60956,2.11508,,,-4.296875,8.3984375,4.8828125,8.3984375,39.0625,0,2.8,14.7,40.625,9,0,2250,15.37400044,8.5873341,-6.78666634,36,1.901976,5.25,17.5,-11.875,18.125,-11.40625,19.6078431372549,18.2117647058824,80.6,0,16.159,14.07936,183.2,105.8,45.3125,0,42.1875,40.625,
81,2017-01-29,12:11:44.64076,2.14616,,,-4.296875,8.3984375,4.8828125,8.3984375,40.625,0,3,14.7,40.625,14,0,2218.75,15.37400044,9.2627424,-6.11125804,39,1.803936,5.546875,17.5,-11.875,18.125,-11.40625,19.6078431372549,18.2117647058824,80.6,0,16.159,14.00603,183.2,105.8,46.875,0,39.0625,40.625,